| time (UTC) | temp F | wind direction | speed knots | gust knots | rain 1hr in | rain 24hr in | rain mn in | humidity % | barometer mb |
| 20260509060650 | 52 | 110 | 2.6 | 3.5 | 0.00 | 0.00 | 0.00 | 81 | 1018.7 |
| 20260509060150 | 52 | 116 | 2.6 | 4.3 | 0.00 | 0.00 | 0.00 | 80 | 1018.8 |
| 20260509055651 | 52 | 100 | 2.6 | 4.3 | 0.00 | 0.00 | 0.00 | 80 | 1018.7 |
| 20260509055150 | 52 | 105 | 2.6 | 4.3 | 0.00 | 0.00 | 0.00 | 80 | 1018.7 |
| 20260509054651 | 52 | 106 | 2.6 | 3.5 | 0.00 | 0.00 | 0.00 | 80 | 1018.7 |
| 20260509054152 | 52 | 107 | 2.6 | 5.2 | 0.00 | 0.00 | 0.00 | 80 | 1018.7 |
| 20260509053649 | 53 | 105 | 1.7 | 5.2 | 0.00 | 0.00 | 0.00 | 80 | 1018.7 |
| 20260509053150 | 53 | 105 | 2.6 | 5.2 | 0.00 | 0.00 | 0.00 | 80 | 1018.7 |
| 20260509052150 | 53 | 98 | 2.6 | 4.3 | 0.00 | 0.00 | 0.00 | 79 | 1018.9 |
| 20260509051650 | 53 | 106 | 3.5 | 3.5 | 0.00 | 0.00 | 0.00 | 79 | 1018.8 |
| 20260509051152 | 53 | 116 | 3.5 | 4.3 | 0.00 | 0.00 | 0.00 | 79 | 1018.8 |
| 20260509050650 | 53 | 100 | 2.6 | 4.3 | 0.00 | 0.00 | 0.00 | 79 | 1018.8 |
| 20260509050150 | 54 | 119 | 2.6 | 4.3 | 0.00 | 0.00 | 0.00 | 79 | 1018.8 |
| 20260509045150 | 54 | 114 | 1.7 | 4.3 | 0.00 | 0.00 | 0.00 | 78 | 1018.8 |
| 20260509044650 | 54 | 114 | 2.6 | 4.3 | 0.00 | 0.00 | 0.00 | 78 | 1018.8 |
| 20260509044152 | 54 | 102 | 1.7 | 4.3 | 0.00 | 0.00 | 0.00 | 78 | 1018.8 |
| 20260509043650 | 54 | 106 | 3.5 | 3.5 | 0.00 | 0.00 | 0.00 | 78 | 1018.7 |
| 20260509043150 | 54 | 106 | 3.5 | 3.5 | 0.00 | 0.00 | 0.00 | 78 | 1018.7 |
| 20260509042651 | 54 | 309 | 0.9 | 2.6 | 0.00 | 0.00 | 0.00 | 77 | 1018.6 |
| 20260509042150 | 55 | 319 | 0.0 | 2.6 | 0.00 | 0.00 | 0.00 | 77 | 1018.6 |
| 20260509041650 | 55 | 327 | 0.0 | 2.6 | 0.00 | 0.00 | 0.00 | 77 | 1018.6 |
| 20260509041152 | 55 | 343 | 0.0 | 3.5 | 0.00 | 0.00 | 0.00 | 77 | 1018.6 |
| 20260509040649 | 55 | 91 | 0.9 | 3.5 | 0.00 | 0.00 | 0.00 | 77 | 1018.5 |
| 20260509040150 | 56 | 357 | 0.0 | 3.5 | 0.00 | 0.00 | 0.00 | 76 | 1018.6 |
| 20260509035150 | 56 | 357 | 0.0 | 5.2 | 0.00 | 0.00 | 0.00 | 76 | 1018.5 |
| 20260509034650 | 56 | 340 | 0.9 | 5.2 | 0.00 | 0.00 | 0.00 | 76 | 1018.5 |
| 20260509033649 | 57 | 317 | 1.7 | 5.2 | 0.00 | 0.00 | 0.00 | 76 | 1018.4 |
| 20260509033149 | 57 | 326 | 2.6 | 5.2 | 0.00 | 0.00 | 0.00 | 75 | 1018.4 |
| 20260509032654 | 57 | 340 | 2.6 | 5.2 | 0.00 | 0.00 | 0.00 | 75 | 1018.4 |
| 20260509032150 | 58 | 336 | 3.5 | 5.2 | 0.00 | 0.00 | 0.00 | 75 | 1018.4 |
| 20260509031649 | 58 | 309 | 3.5 | 5.2 | 0.00 | 0.00 | 0.00 | 75 | 1018.4 |
| 20260509031152 | 58 | 327 | 1.7 | 5.2 | 0.00 | 0.00 | 0.00 | 75 | 1018.4 |
| 20260509030650 | 58 | 334 | 3.5 | 7.0 | 0.00 | 0.00 | 0.00 | 74 | 1018.4 |
| 20260509030150 | 58 | 319 | 4.3 | 7.0 | 0.00 | 0.00 | 0.00 | 74 | 1018.4 |
| 20260509025651 | 58 | 334 | 2.6 | 7.0 | 0.00 | 0.00 | 0.00 | 74 | 1018.4 |
| 20260509025149 | 58 | 330 | 4.3 | 6.1 | 0.00 | 0.00 | 0.00 | 74 | 1018.4 |
| 20260509024650 | 59 | 337 | 3.5 | 5.2 | 0.00 | 0.00 | 0.00 | 74 | 1018.5 |
| 20260509024152 | 59 | 310 | 2.6 | 6.1 | 0.00 | 0.00 | 0.00 | 74 | 1018.6 |
| 20260509023650 | 59 | 316 | 3.5 | 6.1 | 0.00 | 0.00 | 0.00 | 74 | 1018.6 |
| 20260509023150 | 59 | 299 | 3.5 | 6.1 | 0.00 | 0.00 | 0.00 | 74 | 1018.6 |
| 20260509022651 | 59 | 322 | 4.3 | 7.0 | 0.00 | 0.00 | 0.00 | 73 | 1018.6 |
| 20260509022150 | 59 | 309 | 4.3 | 7.0 | 0.00 | 0.00 | 0.00 | 73 | 1018.7 |
| 20260509021650 | 59 | 301 | 3.5 | 7.0 | 0.00 | 0.00 | 0.00 | 73 | 1018.7 |
| 20260509021150 | 59 | 284 | 3.5 | 7.0 | 0.00 | 0.00 | 0.00 | 73 | 1018.7 |
| 20260509020650 | 59 | 294 | 5.2 | 6.1 | 0.00 | 0.00 | 0.00 | 73 | 1018.7 |
| 20260509020150 | 60 | 292 | 3.5 | 6.1 | 0.00 | 0.00 | 0.00 | 73 | 1018.7 |
| 20260509015150 | 60 | 295 | 2.6 | 7.0 | 0.00 | 0.00 | 0.00 | 72 | 1018.6 |
| 20260509014649 | 60 | 310 | 3.5 | 7.0 | 0.00 | 0.00 | 0.00 | 73 | 1018.7 |
| 20260509013649 | 60 | 299 | 4.3 | 6.1 | 0.00 | 0.00 | 0.00 | 72 | 1018.6 |
| 20260509013150 | 60 | 303 | 3.5 | 6.1 | 0.00 | 0.00 | 0.00 | 72 | 1018.7 |
| 20260509012651 | 60 | 291 | 4.3 | 6.1 | 0.00 | 0.00 | 0.00 | 72 | 1018.6 |
| 20260509012149 | 60 | 291 | 5.2 | 6.1 | 0.00 | 0.00 | 0.00 | 72 | 1018.7 |
| 20260509011649 | 60 | 320 | 3.5 | 6.1 | 0.00 | 0.00 | 0.00 | 72 | 1018.7 |
| 20260509011150 | 60 | 273 | 3.5 | 6.1 | 0.00 | 0.00 | 0.00 | 72 | 1018.8 |
| 20260509010650 | 60 | 292 | 3.5 | 6.1 | 0.00 | 0.00 | 0.00 | 72 | 1018.8 |
| 20260509010150 | 60 | 277 | 2.6 | 5.2 | 0.00 | 0.00 | 0.00 | 71 | 1018.8 |
| 20260509005649 | 60 | 296 | 3.5 | 5.2 | 0.00 | 0.00 | 0.00 | 71 | 1018.9 |
| 20260509005149 | 60 | 292 | 4.3 | 5.2 | 0.00 | 0.00 | 0.00 | 71 | 1018.8 |
| 20260509004650 | 60 | 324 | 2.6 | 5.2 | 0.00 | 0.00 | 0.00 | 71 | 1018.9 |
| 20260509004150 | 60 | 302 | 1.7 | 5.2 | 0.00 | 0.00 | 0.00 | 71 | 1019.0 |
| 20260509003652 | 60 | 289 | 2.6 | 7.0 | 0.00 | 0.00 | 0.00 | 70 | 1019.0 |
| 20260509003150 | 60 | 294 | 3.5 | 7.0 | 0.00 | 0.00 | 0.00 | 70 | 1019.1 |
| 20260509002649 | 60 | 282 | 3.5 | 7.0 | 0.00 | 0.00 | 0.00 | 70 | 1019.1 |
| 20260509002150 | 60 | 298 | 4.3 | 6.1 | 0.00 | 0.00 | 0.00 | 70 | 1019.0 |
| 20260509001650 | 61 | 299 | 4.3 | 7.0 | 0.00 | 0.00 | 0.00 | 70 | 1019.0 |
| 20260509001152 | 61 | 291 | 2.6 | 7.0 | 0.00 | 0.00 | 0.00 | 70 | 1019.1 |
| 20260509000650 | 61 | 299 | 4.3 | 7.0 | 0.00 | 0.00 | 0.00 | 70 | 1019.1 |
| 20260509000150 | 60 | 236 | 2.6 | 5.2 | 0.00 | 0.00 | 0.00 | 70 | 1019.2 |
| 20260508235150 | 61 | 288 | 2.6 | 7.0 | 0.00 | 0.00 | 0.00 | 69 | 1019.2 |
| 20260508234650 | 61 | 282 | 3.5 | 7.0 | 0.00 | 0.00 | 0.00 | 69 | 1019.2 |
| 20260508234152 | 61 | 305 | 4.3 | 6.1 | 0.00 | 0.00 | 0.00 | 69 | 1019.2 |
| 20260508233649 | 61 | 302 | 3.5 | 6.1 | 0.00 | 0.00 | 0.00 | 69 | 1019.2 |
| 20260508233150 | 62 | 292 | 3.5 | 6.1 | 0.00 | 0.00 | 0.00 | 69 | 1019.2 |
| 20260508232651 | 62 | 301 | 5.2 | 6.1 | 0.00 | 0.00 | 0.00 | 68 | 1019.3 |
| 20260508232150 | 62 | 263 | 4.3 | 6.1 | 0.00 | 0.00 | 0.00 | 68 | 1019.3 |
| 20260508231650 | 62 | 242 | 3.5 | 6.1 | 0.00 | 0.00 | 0.00 | 68 | 1019.3 |
| 20260508231152 | 62 | 264 | 3.5 | 6.1 | 0.00 | 0.00 | 0.00 | 69 | 1019.3 |
| 20260508230650 | 62 | 274 | 2.6 | 6.1 | 0.00 | 0.00 | 0.00 | 69 | 1019.4 |
| 20260508230150 | 62 | 264 | 3.5 | 6.1 | 0.00 | 0.00 | 0.00 | 69 | 1019.4 |
| 20260508225651 | 62 | 274 | 3.5 | 7.0 | 0.00 | 0.00 | 0.00 | 69 | 1019.4 |
| 20260508225150 | 62 | 267 | 4.3 | 7.0 | 0.00 | 0.00 | 0.00 | 69 | 1019.4 |
| 20260508224650 | 62 | 270 | 3.5 | 7.0 | 0.00 | 0.00 | 0.00 | 68 | 1019.3 |
| 20260508224152 | 62 | 235 | 3.5 | 7.0 | 0.00 | 0.00 | 0.00 | 67 | 1019.3 |
| 20260508223650 | 62 | 268 | 4.3 | 6.1 | 0.00 | 0.00 | 0.00 | 67 | 1019.2 |
| 20260508223150 | 62 | 296 | 4.3 | 7.8 | 0.00 | 0.00 | 0.00 | 67 | 1019.2 |
| 20260508222651 | 62 | 254 | 2.6 | 7.8 | 0.00 | 0.00 | 0.00 | 68 | 1019.3 |
| 20260508222150 | 62 | 261 | 4.3 | 7.8 | 0.00 | 0.00 | 0.00 | 67 | 1019.3 |
| 20260508221650 | 62 | 252 | 3.5 | 7.8 | 0.00 | 0.00 | 0.00 | 67 | 1019.3 |
| 20260508221152 | 62 | 254 | 3.5 | 7.8 | 0.00 | 0.00 | 0.00 | 67 | 1019.2 |
| 20260508220649 | 62 | 273 | 3.5 | 7.8 | 0.00 | 0.00 | 0.00 | 67 | 1019.3 |
| 20260508220151 | 62 | 210 | 3.5 | 7.8 | 0.00 | 0.00 | 0.00 | 68 | 1019.3 |
| 20260508215651 | 62 | 250 | 5.2 | 7.8 | 0.00 | 0.00 | 0.00 | 68 | 1019.3 |
| 20260508215150 | 62 | 236 | 4.3 | 7.8 | 0.00 | 0.00 | 0.00 | 68 | 1019.2 |
| 20260508214650 | 62 | 239 | 4.3 | 7.8 | 0.00 | 0.00 | 0.00 | 68 | 1019.2 |
| 20260508214152 | 62 | 249 | 6.1 | 8.7 | 0.00 | 0.00 | 0.00 | 67 | 1019.2 |
| 20260508213650 | 62 | 238 | 5.2 | 8.7 | 0.00 | 0.00 | 0.00 | 68 | 1019.2 |
| 20260508213150 | 62 | 246 | 3.5 | 8.7 | 0.00 | 0.00 | 0.00 | 67 | 1019.2 |
| 20260508212651 | 62 | 271 | 6.1 | 7.8 | 0.00 | 0.00 | 0.00 | 67 | 1019.2 |
| 20260508212150 | 62 | 242 | 3.5 | 7.8 | 0.00 | 0.00 | 0.00 | 68 | 1019.2 |
| 20260508211650 | 62 | 229 | 4.3 | 9.6 | 0.00 | 0.00 | 0.00 | 67 | 1019.2 |
| 20260508211152 | 62 | 280 | 5.2 | 9.6 | 0.00 | 0.00 | 0.00 | 67 | 1019.2 |
| 20260508210150 | 62 | 266 | 4.3 | 12.2 | 0.00 | 0.00 | 0.00 | 68 | 1019.1 |
| 20260508205651 | 62 | 252 | 5.2 | 12.2 | 0.00 | 0.00 | 0.00 | 66 | 1019.1 |
| 20260508205150 | 62 | 243 | 3.5 | 12.2 | 0.00 | 0.00 | 0.00 | 68 | 1019.0 |
| 20260508204650 | 62 | 243 | 7.8 | 10.4 | 0.00 | 0.00 | 0.00 | 68 | 1019.0 |
| 20260508204152 | 62 | 245 | 5.2 | 10.4 | 0.00 | 0.00 | 0.00 | 69 | 1019.0 |
| 20260508203651 | 62 | 254 | 4.3 | 10.4 | 0.00 | 0.00 | 0.00 | 68 | 1019.0 |
| 20260508203150 | 62 | 235 | 7.0 | 9.6 | 0.00 | 0.00 | 0.00 | 67 | 1019.0 |
| 20260508202652 | 63 | 242 | 7.0 | 11.3 | 0.00 | 0.00 | 0.00 | 67 | 1018.8 |
| 20260508202151 | 63 | 260 | 6.1 | 11.3 | 0.00 | 0.00 | 0.00 | 68 | 1018.9 |
| 20260508201650 | 63 | 245 | 6.1 | 11.3 | 0.00 | 0.00 | 0.00 | 68 | 1018.9 |
| 20260508201152 | 62 | 266 | 7.0 | 10.4 | 0.00 | 0.00 | 0.00 | 69 | 1018.8 |
| 20260508200650 | 62 | 180 | 0.9 | 10.4 | 0.00 | 0.00 | 0.00 | 69 | 1018.7 |
| 20260508200150 | 62 | 201 | 2.6 | 10.4 | 0.00 | 0.00 | 0.00 | 70 | 1018.6 |
| 20260508195651 | 61 | 233 | 4.3 | 8.7 | 0.00 | 0.00 | 0.00 | 70 | 1018.7 |
| 20260508195150 | 61 | 277 | 4.3 | 10.4 | 0.00 | 0.00 | 0.00 | 70 | 1018.8 |
| 20260508194649 | 61 | 242 | 1.7 | 10.4 | 0.00 | 0.00 | 0.00 | 71 | 1018.8 |
| 20260508194152 | 60 | 215 | 4.3 | 10.4 | 0.00 | 0.00 | 0.00 | 71 | 1018.7 |
| 20260508193650 | 61 | 259 | 5.2 | 8.7 | 0.00 | 0.00 | 0.00 | 71 | 1018.7 |
| 20260508193150 | 60 | 242 | 3.5 | 8.7 | 0.00 | 0.00 | 0.00 | 73 | 1018.6 |
| 20260508192150 | 59 | 233 | 5.2 | 8.7 | 0.00 | 0.00 | 0.00 | 71 | 1018.6 |
| 20260508191650 | 59 | 200 | 2.6 | 7.0 | 0.00 | 0.00 | 0.00 | 71 | 1018.6 |
| 20260508191152 | 59 | 217 | 2.6 | 7.0 | 0.00 | 0.00 | 0.00 | 71 | 1018.6 |
| 20260508190650 | 59 | 158 | 3.5 | 6.1 | 0.00 | 0.00 | 0.00 | 71 | 1018.6 |
| 20260508190150 | 59 | 205 | 1.7 | 8.7 | 0.00 | 0.00 | 0.00 | 72 | 1018.7 |
| 20260508185651 | 58 | 189 | 1.7 | 8.7 | 0.00 | 0.00 | 0.00 | 72 | 1018.6 |
| 20260508185150 | 58 | 208 | 2.6 | 8.7 | 0.00 | 0.00 | 0.00 | 71 | 1018.7 |
| 20260508184650 | 58 | 155 | 5.2 | 7.8 | 0.00 | 0.00 | 0.00 | 71 | 1018.7 |
| 20260508184152 | 58 | 233 | 0.9 | 9.6 | 0.00 | 0.00 | 0.00 | 72 | 1018.5 |
| 20260508183650 | 58 | 232 | 4.3 | 9.6 | 0.00 | 0.00 | 0.00 | 71 | 1018.6 |
| 20260508183150 | 58 | 205 | 3.5 | 9.6 | 0.00 | 0.00 | 0.00 | 71 | 1018.6 |
| 20260508182651 | 57 | 254 | 4.3 | 10.4 | 0.00 | 0.00 | 0.00 | 72 | 1018.5 |
| 20260508182150 | 57 | 194 | 2.6 | 10.4 | 0.00 | 0.00 | 0.00 | 72 | 1018.5 |
| 20260508181650 | 56 | 190 | 2.6 | 10.4 | 0.00 | 0.00 | 0.00 | 73 | 1018.4 |
| 20260508181152 | 56 | 187 | 4.3 | 9.6 | 0.00 | 0.00 | 0.00 | 72 | 1018.4 |
| 20260508180650 | 56 | 191 | 5.2 | 9.6 | 0.00 | 0.00 | 0.00 | 73 | 1018.5 |
| 20260508180150 | 56 | 176 | 4.3 | 8.7 | 0.00 | 0.00 | 0.00 | 73 | 1018.5 |
| 20260508175651 | 56 | 232 | 4.3 | 8.7 | 0.00 | 0.00 | 0.00 | 73 | 1018.4 |
| 20260508175150 | 55 | 182 | 3.5 | 7.8 | 0.00 | 0.00 | 0.00 | 74 | 1018.5 |
| 20260508174650 | 55 | 190 | 3.5 | 7.8 | 0.00 | 0.00 | 0.00 | 74 | 1018.4 |
| 20260508174152 | 55 | 177 | 3.5 | 9.6 | 0.00 | 0.00 | 0.00 | 74 | 1018.4 |
| 20260508173650 | 55 | 228 | 5.2 | 9.6 | 0.00 | 0.00 | 0.00 | 73 | 1018.4 |
| 20260508173150 | 55 | 197 | 3.5 | 9.6 | 0.00 | 0.00 | 0.00 | 73 | 1018.3 |
| 20260508172653 | 55 | 221 | 4.3 | 11.3 | 0.00 | 0.00 | 0.00 | 73 | 1018.3 |
| 20260508172150 | 55 | 214 | 5.2 | 11.3 | 0.00 | 0.00 | 0.00 | 73 | 1018.3 |
| 20260508171650 | 55 | 190 | 6.1 | 11.3 | 0.00 | 0.00 | 0.00 | 73 | 1018.2 |
| 20260508171152 | 55 | 203 | 6.1 | 8.7 | 0.00 | 0.00 | 0.00 | 73 | 1018.2 |
| 20260508170650 | 55 | 124 | 2.6 | 8.7 | 0.00 | 0.00 | 0.00 | 74 | 1018.2 |
| 20260508170149 | 55 | 187 | 4.3 | 6.1 | 0.00 | 0.00 | 0.00 | 74 | 1018.1 |
| 20260508165649 | 55 | 183 | 3.5 | 9.6 | 0.00 | 0.00 | 0.00 | 74 | 1018.1 |
| 20260508164650 | 55 | 176 | 0.9 | 9.6 | 0.00 | 0.00 | 0.00 | 74 | 1018.0 |
| 20260508164152 | 55 | 182 | 3.5 | 9.6 | 0.00 | 0.00 | 0.00 | 74 | 1018.0 |
| 20260508163650 | 55 | 186 | 3.5 | 9.6 | 0.00 | 0.00 | 0.00 | 74 | 1018.0 |
| 20260508163150 | 55 | 176 | 3.5 | 9.6 | 0.00 | 0.00 | 0.00 | 75 | 1018.0 |
| 20260508162651 | 55 | 221 | 1.7 | 9.6 | 0.00 | 0.00 | 0.00 | 75 | 1017.9 |
| 20260508162148 | 54 | 187 | 3.5 | 9.6 | 0.00 | 0.00 | 0.00 | 75 | 1017.9 |
| 20260508161650 | 54 | 194 | 3.5 | 7.8 | 0.00 | 0.00 | 0.00 | 75 | 1017.9 |
| 20260508161152 | 54 | 152 | 3.5 | 5.2 | 0.00 | 0.00 | 0.00 | 75 | 1017.8 |
| 20260508160650 | 54 | 196 | 0.9 | 7.0 | 0.00 | 0.00 | 0.00 | 75 | 1017.7 |
| 20260508160149 | 54 | 184 | 0.0 | 7.0 | 0.00 | 0.00 | 0.00 | 75 | 1017.7 |
| 20260508155150 | 54 | 161 | 1.7 | 7.0 | 0.00 | 0.00 | 0.00 | 75 | 1017.6 |
| 20260508154650 | 54 | 190 | 3.5 | 7.8 | 0.00 | 0.00 | 0.00 | 75 | 1017.7 |
| 20260508154152 | 54 | 196 | 1.7 | 7.8 | 0.00 | 0.00 | 0.00 | 76 | 1017.5 |
| 20260508153650 | 54 | 173 | 1.7 | 7.8 | 0.00 | 0.00 | 0.00 | 76 | 1017.5 |
| 20260508153150 | 54 | 224 | 3.5 | 7.0 | 0.00 | 0.00 | 0.00 | 76 | 1017.5 |
| 20260508152651 | 54 | 194 | 4.3 | 6.1 | 0.00 | 0.00 | 0.00 | 76 | 1017.5 |
| 20260508152150 | 54 | 162 | 3.5 | 5.2 | 0.00 | 0.00 | 0.00 | 76 | 1017.5 |
| 20260508151649 | 54 | 184 | 3.5 | 6.1 | 0.00 | 0.00 | 0.00 | 76 | 1017.4 |
| 20260508151152 | 54 | 186 | 1.7 | 6.1 | 0.00 | 0.00 | 0.00 | 76 | 1017.2 |
| 20260508150650 | 54 | 224 | 2.6 | 6.1 | 0.00 | 0.00 | 0.00 | 77 | 1017.2 |
| 20260508150149 | 53 | 172 | 2.6 | 5.2 | 0.00 | 0.00 | 0.00 | 77 | 1017.1 |
| 20260508145651 | 53 | 179 | 2.6 | 6.1 | 0.00 | 0.00 | 0.00 | 77 | 1017.0 |
| 20260508145150 | 53 | 196 | 1.7 | 6.1 | 0.00 | 0.00 | 0.00 | 78 | 1016.9 |
| 20260508144649 | 53 | 121 | 1.7 | 6.1 | 0.00 | 0.00 | 0.00 | 78 | 1016.6 |
| 20260508144152 | 53 | 154 | 2.6 | 3.5 | 0.00 | 0.00 | 0.00 | 78 | 1016.5 |
| 20260508143650 | 53 | 95 | 0.9 | 4.3 | 0.00 | 0.00 | 0.00 | 79 | 1016.6 |
| 20260508143150 | 53 | 194 | 0.9 | 4.3 | 0.00 | 0.00 | 0.00 | 79 | 1016.3 |
| 20260508142650 | 53 | 187 | 1.7 | 4.3 | 0.00 | 0.00 | 0.00 | 79 | 1016.5 |
| 20260508142150 | 53 | 161 | 0.0 | 3.5 | 0.00 | 0.00 | 0.00 | 80 | 1016.3 |
| 20260508141152 | 52 | 197 | 1.7 | 3.5 | 0.00 | 0.00 | 0.00 | 80 | 1016.2 |
| 20260508140650 | 52 | 179 | 1.7 | 3.5 | 0.00 | 0.00 | 0.00 | 80 | 1016.3 |
| 20260508140149 | 52 | 114 | 0.9 | 1.7 | 0.00 | 0.00 | 0.00 | 80 | 1016.3 |
| 20260508135650 | 52 | 133 | 0.0 | 4.3 | 0.00 | 0.00 | 0.00 | 80 | 1016.2 |
| 20260508135150 | 52 | 91 | 2.6 | 4.3 | 0.00 | 0.00 | 0.00 | 80 | 1015.9 |
| 20260508134650 | 52 | 96 | 0.9 | 4.3 | 0.00 | 0.00 | 0.00 | 80 | 1015.8 |
| 20260508134149 | 52 | 100 | 1.7 | 3.5 | 0.00 | 0.00 | 0.00 | 80 | 1016.1 |
| 20260508133649 | 52 | 95 | 1.7 | 3.5 | 0.00 | 0.00 | 0.00 | 80 | 1016.1 |
| 20260508133149 | 52 | 105 | 1.7 | 4.3 | 0.00 | 0.00 | 0.00 | 80 | 1016.1 |
| 20260508132651 | 52 | 103 | 1.7 | 4.3 | 0.00 | 0.00 | 0.00 | 80 | 1016.3 |
| 20260508132151 | 52 | 92 | 2.6 | 4.3 | 0.00 | 0.00 | 0.00 | 80 | 1016.3 |
| 20260508131649 | 52 | 117 | 3.5 | 3.5 | 0.00 | 0.00 | 0.00 | 80 | 1016.4 |
| 20260508131152 | 52 | 96 | 1.7 | 3.5 | 0.00 | 0.00 | 0.00 | 80 | 1016.4 |
| 20260508130649 | 52 | 120 | 1.7 | 3.5 | 0.00 | 0.00 | 0.00 | 80 | 1016.4 |
| 20260508130149 | 52 | 138 | 1.7 | 1.7 | 0.00 | 0.00 | 0.00 | 80 | 1016.4 |
| 20260508125650 | 52 | 140 | 0.0 | 4.3 | 0.00 | 0.00 | 0.00 | 80 | 1016.5 |
| 20260508125150 | 52 | 176 | 0.9 | 4.3 | 0.00 | 0.00 | 0.00 | 80 | 1016.6 |
| 20260508124649 | 52 | 120 | 1.7 | 4.3 | 0.00 | 0.00 | 0.00 | 81 | 1016.6 |
| 20260508124152 | 51 | 170 | 0.9 | 2.6 | 0.00 | 0.00 | 0.00 | 81 | 1016.5 |
| 20260508123649 | 51 | 141 | 1.7 | 2.6 | 0.00 | 0.00 | 0.00 | 81 | 1016.5 |
| 20260508123149 | 52 | 95 | 0.0 | 1.7 | 0.00 | 0.00 | 0.00 | 81 | 1016.5 |
| 20260508122650 | 51 | 105 | 0.0 | 4.3 | 0.00 | 0.00 | 0.00 | 81 | 1016.4 |
| 20260508122150 | 51 | 112 | 0.9 | 4.3 | 0.00 | 0.00 | 0.00 | 81 | 1016.3 |
| 20260508121650 | 51 | 96 | 0.9 | 4.3 | 0.00 | 0.00 | 0.00 | 81 | 1016.3 |
| 20260508121152 | 51 | 106 | 1.7 | 3.5 | 0.00 | 0.00 | 0.00 | 81 | 1016.4 |
| 20260508120649 | 51 | 113 | 1.7 | 3.5 | 0.00 | 0.00 | 0.00 | 81 | 1016.2 |
| 20260508120150 | 51 | 103 | 2.6 | 3.5 | 0.00 | 0.00 | 0.00 | 81 | 1016.2 |
| 20260508115650 | 51 | 109 | 2.6 | 2.6 | 0.00 | 0.00 | 0.00 | 81 | 1016.2 |
| 20260508115149 | 51 | 121 | 0.9 | 2.6 | 0.00 | 0.00 | 0.00 | 81 | 1016.2 |
| 20260508114649 | 51 | 116 | 0.0 | 3.5 | 0.00 | 0.00 | 0.00 | 81 | 1016.2 |
| 20260508114153 | 51 | 96 | 0.9 | 3.5 | 0.00 | 0.00 | 0.00 | 81 | 1016.1 |
| 20260508113649 | 51 | 123 | 1.7 | 3.5 | 0.00 | 0.00 | 0.00 | 81 | 1016.0 |
| 20260508113149 | 51 | 67 | 1.7 | 2.6 | 0.00 | 0.00 | 0.00 | 82 | 1016.0 |
| 20260508112650 | 50 | 95 | 0.9 | 3.5 | 0.00 | 0.00 | 0.00 | 81 | 1016.1 |
| 20260508112150 | 50 | 102 | 0.9 | 3.5 | 0.00 | 0.00 | 0.00 | 81 | 1016.0 |
| 20260508111649 | 51 | 102 | 1.7 | 3.5 | 0.00 | 0.00 | 0.00 | 81 | 1015.9 |
| 20260508111151 | 50 | 109 | 0.9 | 4.3 | 0.00 | 0.00 | 0.00 | 81 | 1015.7 |
| 20260508110649 | 51 | 124 | 1.7 | 4.3 | 0.00 | 0.00 | 0.00 | 81 | 1015.6 |
| 20260508110150 | 51 | 102 | 2.6 | 4.3 | 0.00 | 0.00 | 0.00 | 81 | 1015.7 |
| 20260508105650 | 51 | 120 | 1.7 | 4.3 | 0.00 | 0.00 | 0.00 | 81 | 1015.6 |
| 20260508105150 | 51 | 100 | 2.6 | 3.5 | 0.00 | 0.00 | 0.00 | 81 | 1015.7 |
| 20260508104649 | 51 | 77 | 1.7 | 3.5 | 0.00 | 0.00 | 0.00 | 81 | 1015.8 |
| 20260508104151 | 51 | 98 | 1.7 | 3.5 | 0.00 | 0.00 | 0.00 | 81 | 1015.8 |
| 20260508103649 | 50 | 92 | 0.9 | 3.5 | 0.00 | 0.00 | 0.00 | 82 | 1015.8 |
| 20260508102650 | 50 | 95 | 0.9 | 5.2 | 0.00 | 0.00 | 0.00 | 82 | 1015.7 |
| 20260508102150 | 50 | 89 | 2.6 | 5.2 | 0.00 | 0.00 | 0.00 | 82 | 1015.6 |
| 20260508101649 | 50 | 89 | 2.6 | 4.3 | 0.00 | 0.00 | 0.00 | 82 | 1015.6 |
| 20260508101246 | 50 | 127 | 1.7 | 3.5 | 0.00 | 0.00 | 0.00 | 82 | 1015.6 |
| 20260508101151 | 50 | 127 | 1.7 | 3.5 | 0.00 | 0.00 | 0.00 | 82 | 1015.6 |
| 20260508100649 | 50 | 96 | 2.6 | 5.2 | 0.00 | 0.00 | 0.00 | 81 | 1015.5 |
| 20260508100149 | 50 | 120 | 0.9 | 5.2 | 0.00 | 0.00 | 0.00 | 81 | 1015.4 |
| 20260508095650 | 50 | 105 | 2.6 | 5.2 | 0.00 | 0.00 | 0.00 | 81 | 1015.3 |
| 20260508095149 | 50 | 99 | 2.6 | 5.2 | 0.00 | 0.00 | 0.00 | 81 | 1015.3 |
| 20260508094649 | 50 | 95 | 2.6 | 5.2 | 0.00 | 0.00 | 0.00 | 82 | 1015.4 |
| 20260508094151 | 50 | 92 | 1.7 | 4.3 | 0.00 | 0.00 | 0.00 | 82 | 1015.4 |
| 20260508093649 | 50 | 107 | 2.6 | 5.2 | 0.00 | 0.00 | 0.00 | 82 | 1015.3 |
| 20260508093149 | 50 | 89 | 4.3 | 5.2 | 0.00 | 0.00 | 0.00 | 82 | 1015.3 |
| 20260508092650 | 50 | 120 | 2.6 | 5.2 | 0.00 | 0.00 | 0.00 | 82 | 1015.3 |
| 20260508092149 | 49 | 113 | 4.3 | 4.3 | 0.00 | 0.00 | 0.00 | 82 | 1015.2 |
| 20260508091649 | 49 | 100 | 1.7 | 4.3 | 0.00 | 0.00 | 0.00 | 82 | 1015.2 |
| 20260508091151 | 49 | 99 | 1.7 | 4.3 | 0.00 | 0.00 | 0.00 | 82 | 1015.3 |
| 20260508090150 | 49 | 102 | 3.5 | 5.2 | 0.00 | 0.00 | 0.00 | 82 | 1015.0 |
| 20260508085650 | 49 | 109 | 3.5 | 5.2 | 0.00 | 0.00 | 0.00 | 82 | 1015.0 |
| 20260508085149 | 49 | 106 | 1.7 | 5.2 | 0.00 | 0.00 | 0.00 | 82 | 1015.0 |
| 20260508084649 | 49 | 95 | 3.5 | 5.2 | 0.00 | 0.00 | 0.00 | 82 | 1015.0 |
| 20260508084151 | 49 | 114 | 2.6 | 5.2 | 0.00 | 0.00 | 0.00 | 81 | 1015.0 |
| 20260508083649 | 49 | 91 | 2.6 | 5.2 | 0.00 | 0.00 | 0.00 | 81 | 1014.8 |
| 20260508083149 | 49 | 98 | 2.6 | 5.2 | 0.00 | 0.00 | 0.00 | 81 | 1014.8 |
| 20260508082650 | 49 | 91 | 3.5 | 5.2 | 0.00 | 0.00 | 0.00 | 81 | 1014.8 |
| 20260508082149 | 48 | 92 | 3.5 | 4.3 | 0.00 | 0.00 | 0.00 | 82 | 1014.7 |
| 20260508081649 | 48 | 107 | 2.6 | 4.3 | 0.00 | 0.00 | 0.00 | 81 | 1014.7 |
| 20260508081151 | 48 | 113 | 3.5 | 4.3 | 0.00 | 0.00 | 0.00 | 81 | 1014.6 |
| 20260508080649 | 48 | 102 | 3.5 | 4.3 | 0.00 | 0.00 | 0.00 | 81 | 1014.6 |
| 20260508080149 | 48 | 100 | 2.6 | 5.2 | 0.00 | 0.00 | 0.00 | 81 | 1014.5 |
| 20260508075650 | 48 | 91 | 2.6 | 5.2 | 0.00 | 0.00 | 0.00 | 81 | 1014.6 |
| 20260508075149 | 48 | 100 | 3.5 | 5.2 | 0.00 | 0.00 | 0.00 | 81 | 1014.7 |
| 20260508074649 | 48 | 91 | 2.6 | 4.3 | 0.00 | 0.00 | 0.00 | 81 | 1014.8 |
| 20260508074151 | 48 | 92 | 2.6 | 4.3 | 0.00 | 0.00 | 0.00 | 81 | 1014.8 |
| 20260508073649 | 48 | 121 | 2.6 | 4.3 | 0.00 | 0.00 | 0.00 | 81 | 1014.7 |
| 20260508073149 | 48 | 112 | 2.6 | 4.3 | 0.00 | 0.00 | 0.00 | 81 | 1014.6 |
| 20260508072650 | 48 | 100 | 2.6 | 4.3 | 0.00 | 0.00 | 0.00 | 81 | 1014.6 |
| 20260508072149 | 48 | 110 | 2.6 | 4.3 | 0.00 | 0.00 | 0.00 | 80 | 1014.6 |
| 20260508071649 | 48 | 119 | 2.6 | 4.3 | 0.00 | 0.00 | 0.00 | 80 | 1014.6 |
| 20260508071151 | 48 | 116 | 0.9 | 4.3 | 0.00 | 0.00 | 0.00 | 80 | 1014.6 |
| 20260508070649 | 48 | 107 | 2.6 | 4.3 | 0.00 | 0.00 | 0.00 | 80 | 1014.6 |
| 20260508070149 | 48 | 103 | 2.6 | 3.5 | 0.00 | 0.00 | 0.00 | 80 | 1014.5 |
| 20260508065650 | 48 | 91 | 1.7 | 3.5 | 0.00 | 0.00 | 0.00 | 80 | 1014.6 |
| 20260508065149 | 48 | 105 | 2.6 | 4.3 | 0.00 | 0.00 | 0.00 | 80 | 1014.6 |
| 20260508064649 | 48 | 105 | 2.6 | 4.3 | 0.00 | 0.00 | 0.00 | 80 | 1014.6 |
| 20260508064151 | 48 | 102 | 3.5 | 4.3 | 0.00 | 0.00 | 0.00 | 80 | 1014.5 |
| 20260508063650 | 48 | 123 | 3.5 | 4.3 | 0.00 | 0.00 | 0.00 | 80 | 1014.5 |
| 20260508063151 | 49 | 106 | 2.6 | 4.3 | 0.00 | 0.00 | 0.00 | 79 | 1014.5 |
| 20260508062650 | 48 | 105 | 2.6 | 4.3 | 0.00 | 0.00 | 0.00 | 79 | 1014.5 |
| 20260508062149 | 49 | 103 | 2.6 | 4.3 | 0.00 | 0.00 | 0.00 | 79 | 1014.5 |
| 20260508061649 | 49 | 98 | 2.6 | 3.5 | 0.00 | 0.00 | 0.00 | 79 | 1014.4 |
| 20260508061151 | 49 | 105 | 2.6 | 2.6 | 0.00 | 0.00 | 0.00 | 79 | 1014.4 |